Cork, Ireland

2:05 AM IST on May 25, 2017 (GMT +0100)
Cork

Weather History for EICK - September, 2012

Change the Weather History Date:

Saturday, September 29, 2012

  Actual Average Record
Temperature  
Mean Temperature 53 °F -  
Max Temperature 60 °F 56 °F 65 °F (2014)
Min Temperature 46 °F 46 °F 44 °F (2005)
Degree Days  
Heating Degree Days 12    
Growing Degree Days 3 (Base 50)    
Moisture  
Dew Point 46 °F    
Average Humidity 79    
Maximum Humidity 94    
Minimum Humidity 52    
Precipitation  
Precipitation 0.00 in 0.16 in - ()
Sea Level Pressure  
Sea Level Pressure 30.12 in    
Wind  
Wind Speed 10 mph ()    
Max Wind Speed 17 mph    
Max Gust Speed -    
Visibility 6.7 miles    
Events      
Averages and records for this station are not official NWS values.
T = Trace of Precipitation, MM = Missing Value Source: Averaged Metar Reports

Daily Weather History Graph

Daily Weather History Graph

Search for Another Location

Airport or City:

Trip Planner

Search our weather history database for the weather conditions in past years. The results will help you decide how hot, cold, wet, or windy it might be!

Date:

Astronomy

Sep. 29, 2012 Rise Set
Actual Time 7:31 AM IST 7:15 PM IST
Civil Twilight 6:58 AM IST 7:48 PM IST
Nautical Twilight 6:19 AM IST 8:27 PM IST
Astronomical Twilight 5:38 AM IST 9:07 PM IST
Moon 6:36 PM IST (9/29) 6:50 AM IST (9/29)
Length of Visible Light 12h 50m
Length of Day
11h 43m
Full, 100% of the Moon is Illuminated
Sep 29
Full
Sep 30
Full
Oct 8
Last Quarter
Oct 15
New
Oct 22
First Quarter

Hourly Weather History & Observations

Time (IST) Temp. Windchill Dew Point Humidity Pressure Visibility Wind Dir Wind Speed Gust Speed Precip Events Conditions
12:00 AM 48.2 °F - 44.6 °F 87% 30.04 in 6.2 mi West 10.4 mph - N/A   Scattered Clouds
12:30 AM 50.0 °F - 44.6 °F 82% 30.06 in 6.2 mi West 12.7 mph - N/A   Mostly Cloudy
1:00 AM 48 °F - 44 °F 81% 30.08 in 16 mi West 6.7 mph - -   Partly Cloudy
1:00 AM 48.2 °F - 44.6 °F 87% 30.06 in 6.2 mi West 6.9 mph - N/A   Scattered Clouds
1:30 AM 48.2 °F - 44.6 °F 87% 30.06 in 6.2 mi West 8.1 mph - N/A   Partly Cloudy
2:00 AM 48.2 °F - 44.6 °F 87% 30.06 in - West 10.4 mph - N/A   Clear
2:30 AM 48.2 °F - 44.6 °F 87% 30.06 in 6.2 mi West 8.1 mph - N/A   Partly Cloudy
3:00 AM 48.2 °F - 44.6 °F 87% 30.06 in 6.2 mi West 10.4 mph - N/A   Partly Cloudy
3:30 AM 48.2 °F - 44.6 °F 87% 30.06 in 6.2 mi West 10.4 mph - N/A   Partly Cloudy
4:00 AM 48.2 °F - 44.6 °F 87% 30.09 in 6.2 mi West 10.4 mph - N/A   Partly Cloudy
4:30 AM 48.2 °F - 44.6 °F 87% 30.09 in 6.2 mi West 12.7 mph - N/A   Partly Cloudy
5:00 AM 46.4 °F 41.5 °F 44.6 °F 93% 30.09 in 6.2 mi West 10.4 mph - N/A   Partly Cloudy
5:30 AM 48.2 °F - 44.6 °F 87% 30.09 in 6.2 mi West 10.4 mph - N/A   Partly Cloudy
6:00 AM 46.4 °F 42.4 °F 42.8 °F 87% 30.09 in 6.2 mi West 8.1 mph - N/A   Partly Cloudy
6:30 AM 48.2 °F - 42.8 °F 82% 30.09 in 6.2 mi WNW 9.2 mph - N/A   Partly Cloudy
7:00 AM 48 °F - 43 °F 76% 30.14 in 19 mi West 8.9 mph - -   Scattered Clouds
7:00 AM 48.2 °F - 42.8 °F 82% 30.12 in 6.2 mi West 9.2 mph - N/A   Partly Cloudy
7:30 AM 46.4 °F 42.4 °F 42.8 °F 87% 30.12 in 6.2 mi West 8.1 mph - N/A   Partly Cloudy
8:00 AM 48.2 °F - 46.4 °F 93% 30.15 in 6.2 mi West 9.2 mph - N/A   Mostly Cloudy
8:30 AM 50.0 °F - 44.6 °F 82% 30.15 in 6.2 mi West 10.4 mph - N/A   Partly Cloudy
9:00 AM 50.0 °F - 44.6 °F 82% 30.15 in 6.2 mi West 8.1 mph - N/A   Partly Cloudy
9:30 AM 51.8 °F - 46.4 °F 82% 30.18 in 6.2 mi West 11.5 mph - N/A   Partly Cloudy
10:00 AM 51.8 °F - 46.4 °F 82% 30.18 in 6.2 mi WNW 13.8 mph - N/A   Mostly Cloudy
10:30 AM 53.6 °F - 46.4 °F 77% 30.18 in 6.2 mi West 11.5 mph - N/A   Partly Cloudy
11:00 AM 55.4 °F - 46.4 °F 72% 30.18 in 6.2 mi West 15.0 mph - N/A   Scattered Clouds
11:30 AM 55.4 °F - 46.4 °F 72% 30.18 in 6.2 mi West 13.8 mph - N/A   Scattered Clouds
12:00 PM 55.4 °F - 46.4 °F 72% 30.18 in 6.2 mi West 13.8 mph - N/A   Mostly Cloudy
12:30 PM 57.2 °F - 44.6 °F 63% 30.18 in 6.2 mi West 12.7 mph - N/A   Mostly Cloudy
1:00 PM 58 °F - 45 °F 52% 30.18 in 28 mi WNW 15.7 mph - -   Mostly Cloudy
1:00 PM 59.0 °F - 44.6 °F 59% 30.18 in 6.2 mi WNW 15.0 mph - N/A   Mostly Cloudy
1:30 PM 59.0 °F - 44.6 °F 59% 30.18 in 6.2 mi WNW 9.2 mph - N/A   Mostly Cloudy
2:00 PM 59.0 °F - 46.4 °F 63% 30.18 in 6.2 mi West 9.2 mph - N/A   Mostly Cloudy
2:30 PM 59.0 °F - 46.4 °F 63% 30.15 in 6.2 mi WSW 6.9 mph - N/A   Mostly Cloudy
3:00 PM 59.0 °F - 48.2 °F 67% 30.15 in 6.2 mi WSW 8.1 mph - N/A   Mostly Cloudy
3:30 PM 60.8 °F - 48.2 °F 63% 30.15 in 6.2 mi SW 11.5 mph - N/A   Mostly Cloudy
4:00 PM 60.8 °F - 48.2 °F 63% 30.15 in 6.2 mi WSW 11.5 mph - N/A   Scattered Clouds
4:30 PM 57.2 °F - 48.2 °F 72% 30.12 in 6.2 mi WSW 13.8 mph - N/A   Scattered Clouds
5:00 PM 57.2 °F - 48.2 °F 72% 30.12 in 6.2 mi WSW 12.7 mph - N/A   Scattered Clouds
5:30 PM 55.4 °F - 48.2 °F 77% 30.12 in 6.2 mi SW 12.7 mph - N/A   Mostly Cloudy
6:00 PM 55.4 °F - 48.2 °F 77% 30.12 in 6.2 mi SW 11.5 mph - N/A   Mostly Cloudy
6:30 PM 55.4 °F - 48.2 °F 77% 30.12 in 6.2 mi SW 11.5 mph - N/A   Mostly Cloudy
7:00 PM 53.6 °F - 48.2 °F 82% 30.12 in 6.2 mi SW 13.8 mph - N/A   Mostly Cloudy
7:30 PM 53.6 °F - 46.4 °F 77% 30.12 in 6.2 mi WSW 9.2 mph - N/A   Mostly Cloudy
8:00 PM 53.6 °F - 50.0 °F 88% 30.12 in 6.2 mi SW 16.1 mph - N/A   Mostly Cloudy
8:30 PM 53.6 °F - 50.0 °F 88% 30.09 in 6.2 mi SSW 13.8 mph - N/A   Mostly Cloudy
9:00 PM 53.6 °F - 50.0 °F 88% 30.09 in 6.2 mi SW 15.0 mph - N/A   Mostly Cloudy
9:30 PM 53.6 °F - 48.2 °F 82% 30.09 in 6.2 mi SW 9.2 mph - N/A   Mostly Cloudy
10:00 PM 53.6 °F - 50.0 °F 88% 30.06 in 6.2 mi SW 13.8 mph - N/A   Mostly Cloudy
10:30 PM 53.6 °F - 50.0 °F 88% 30.06 in 6.2 mi SW 11.5 mph - N/A   Mostly Cloudy
11:00 PM 53.6 °F - 51.8 °F 94% 30.06 in 6.2 mi SSW 13.8 mph - N/A   Mostly Cloudy
11:30 PM 55.4 °F - 51.8 °F 88% 30.06 in 6.2 mi SW 17.3 mph - N/A   Mostly Cloudy